Deer Park, WA

12:04 AM PDT on September 27, 2016 (GMT -0700)
Deer Park

Weather History for KDEW - October, 2013

Change the Weather History Date:

Monday, October 28, 2013

  Actual Average Record
Temperature  
Mean Temperature 41 °F 40 °F  
Max Temperature 47 °F 51 °F 63 °F (2003)
Min Temperature 34 °F 29 °F 19 °F (2002)
Degree Days  
Heating Degree Days 24 25  
Month to date heating degree days 625 573  
Since 1 July heating degree days 888 992  
Cooling Degree Days 0 0  
Month to date cooling degree days 0 0  
Year to date cooling degree days 310 187  
Moisture  
Dew Point 19 °F    
Average Humidity 60    
Maximum Humidity 89    
Minimum Humidity 31    
Precipitation  
Precipitation T in 0.06 in 0.35 in (2014)
Month to date precipitation 0.35 1.41  
Year to date precipitation 14.73 15.85  
Sea Level Pressure  
Sea Level Pressure 30.02 in    
Wind  
Wind Speed 15 mph (NNE)    
Max Wind Speed 28 mph    
Max Gust Speed 37 mph    
Visibility 10 miles    
Events Snow    
T = Trace of Precipitation, MM = Missing Value Source: NWS Daily Summary

Daily Weather History Graph

Daily Weather History Graph

Search for Another Location

Airport or City:

Trip Planner

Search our weather history database for the weather conditions in past years. The results will help you decide how hot, cold, wet, or windy it might be!

Date:

Astronomy

Oct. 28, 2013 Rise Set
Actual Time 7:28 AM PDT 5:37 PM PDT
Civil Twilight 6:56 AM PDT 6:09 PM PDT
Nautical Twilight 6:20 AM PDT 6:45 PM PDT
Astronomical Twilight 5:44 AM PDT 7:21 PM PDT
Moon 1:00 AM PDT (10/28) 2:44 PM PDT (10/28)
Length of Visible Light 11h 12m
Length of Day
10h 08m
Waning Crescent, 33% of the Moon is Illuminated
Oct 28
Waning Crescent
Nov 3
New
Nov 9
First Quarter
Nov 17
Full
Nov 25
Last Quarter

Hourly Weather History & Observations

Time (PDT) Temp. Windchill Dew Point Humidity Pressure Visibility Wind Dir Wind Speed Gust Speed Precip Events Conditions
12:53 AM 34.0 °F 21.5 °F 30.9 °F 89% 30.07 in 5.0 mi NE 24.2 mph 44.9 mph 0.00 in Snow Light Snow
1:53 AM 34.0 °F 23.0 °F 30.9 °F 89% 30.06 in 9.0 mi NNE 18.4 mph 29.9 mph 0.00 in   Overcast
2:53 AM 35.1 °F 23.8 °F 28.9 °F 78% 30.05 in 10.0 mi NE 20.7 mph 31.1 mph N/A   Overcast
3:53 AM 35.1 °F 25.2 °F 26.1 °F 70% 30.03 in 10.0 mi NE 16.1 mph 26.5 mph N/A   Scattered Clouds
4:53 AM 35.1 °F 25.5 °F 23.0 °F 61% 30.03 in 10.0 mi NNE 15.0 mph 20.7 mph N/A   Clear
5:53 AM 35.1 °F 25.2 °F 21.0 °F 57% 30.04 in 10.0 mi NNE 16.1 mph 24.2 mph N/A   Clear
6:53 AM 35.1 °F 25.9 °F 19.9 °F 54% 30.04 in 10.0 mi NNE 13.8 mph 21.9 mph N/A   Clear
7:53 AM 35.1 °F 26.9 °F 19.0 °F 52% 30.04 in 10.0 mi NNE 11.5 mph 19.6 mph N/A   Clear
8:53 AM 36.0 °F 27.1 °F 19.0 °F 50% 30.05 in 10.0 mi NNE 13.8 mph 19.6 mph N/A   Clear
9:53 AM 37.9 °F 28.5 °F 18.0 °F 45% 30.05 in 10.0 mi NE 17.3 mph 27.6 mph N/A   Clear
10:53 AM 42.1 °F 33.6 °F 18.0 °F 38% 30.05 in 10.0 mi NE 18.4 mph 27.6 mph N/A   Clear
11:53 AM 44.1 °F 35.4 °F 18.0 °F 35% 30.02 in 10.0 mi NE 21.9 mph 32.2 mph N/A   Clear
12:53 PM 43.0 °F 33.5 °F 17.1 °F 35% 30.01 in 10.0 mi NE 24.2 mph 32.2 mph N/A   Clear
1:53 PM 45.0 °F 36.4 °F 18.0 °F 34% 29.98 in 10.0 mi ENE 23.0 mph 28.8 mph N/A   Clear
2:53 PM 46.0 °F 39.3 °F 18.0 °F 33% 29.96 in 10.0 mi NNE 16.1 mph 28.8 mph N/A   Clear
3:53 PM 45.0 °F 37.9 °F 17.1 °F 33% 29.97 in 10.0 mi NE 16.1 mph 27.6 mph N/A   Clear
4:53 PM 43.0 °F 36.0 °F 17.1 °F 35% 29.99 in 10.0 mi NE 13.8 mph 23.0 mph N/A   Clear
5:53 PM 39.9 °F 32.1 °F 16.0 °F 38% 29.99 in 10.0 mi NNE 13.8 mph - N/A   Clear
6:53 PM 39.0 °F 32.8 °F 16.0 °F 39% 30.00 in 10.0 mi NNE 9.2 mph - N/A   Clear
7:53 PM 37.9 °F 32.1 °F 15.1 °F 39% 30.00 in 10.0 mi NNE 8.1 mph - N/A   Clear
8:53 PM 37.0 °F 31.0 °F 15.1 °F 41% 30.00 in 10.0 mi NNE 8.1 mph - N/A   Clear
9:53 PM 37.0 °F 29.3 °F 15.1 °F 41% 29.99 in 10.0 mi NNE 11.5 mph - N/A   Clear
10:53 PM 37.0 °F 28.9 °F 15.1 °F 41% 29.99 in 10.0 mi NNE 12.7 mph - N/A   Clear
11:53 PM 36.0 °F 27.5 °F 15.1 °F 43% 29.99 in 10.0 mi NNE 12.7 mph - N/A   Clear